Regional Weather Roundup
Issued by NWS

Home | Current Version | Previous Version | Graphics & Text | Print | Product List | Glossary On
Versions: 1 2 3 4 5 6 7 8 9 10 11 12 13 14 15 16 17 18 19 20 21 22 23 24 25 26 27 28 29 30 31 32 33 34 35 36 37 38 39 40 41 42 43 44 45 46 47 48 49 50
000
ASUS45 KCYS 271210
RWRWY

WYOMING REGIONAL WEATHER ROUNDUP
NATIONAL WEATHER SERVICE CHEYENNE WY
600 AM MDT WED AUG 27 2014

NOTE:  "FAIR" INDICATES FEW OR NO CLOUDS BELOW 12,000 FEET
WITH NO SIGNIFICANT WEATHER AND/OR OBSTRUCTIONS TO VISIBILITY.

WYZ001-271300-
YELLOWSTONE NATIONAL PARK

CITY           SKY/WX    TMP DP  RH WIND       PRES   REMARKS
LK YELLOWSTONE   N/A     34  32  92 CALM      30.39R
6HR MIN TEMP:  33; 6HR MAX TEMP:  37;

W YELLOWSTONE  NOT AVBL

$$
WYZ002>013-054>058-071-098>099-271300-
NORTHERN WYOMING

CITY           SKY/WX    TMP DP  RH WIND       PRES   REMARKS
JACKSON        PTCLDY    45  43  93 NE3       30.29S
CODY           PTCLDY    54  45  71 S6        30.19S
GREYBULL       PTCLDY    52  48  86 CALM      30.14R
6HR MIN TEMP:  52; 6HR MAX TEMP:  66;

WORLAND        NOT AVBL
SHERIDAN       CLEAR     47  44  90 CALM      30.14S
6HR MIN TEMP:  47; 6HR MAX TEMP:  56;

BUFFALO        PTCLDY    58  44  60 W3        30.18F
6HR MIN TEMP:  55; 6HR MAX TEMP:  59;

GILLETTE       PTCLDY    51  50  96 S3        30.15S
6HR MIN TEMP:  50; 6HR MAX TEMP:  57;

HULETT         FAIR      52  48  87 MISG      30.17
NEWCASTLE      FAIR      55  54  94 E6        30.18

$$
WYZ014>020-022>026-101>103-271300-
CENTRAL WYOMING

CITY           SKY/WX    TMP DP  RH WIND       PRES   REMARKS
BIG PINEY      CLOUDY    49  46  90 E5        30.30R
6HR MIN TEMP:  48; 6HR MAX TEMP:  50;

PINEDALE       CLOUDY    46  45  93 NW3       30.30S
DUBOIS         FAIR      45  37  76 NW8       30.31S
LANDER         CLOUDY    59  47  64 W5        30.19S
6HR MIN TEMP:  57; 6HR MAX TEMP:  64;

RIVERTON       CLOUDY    55  47  74 N5        30.20F
6HR MIN TEMP:  55; 6HR MAX TEMP:  63;

CASPER         CLOUDY    55  52  89 CALM      30.19S
6HR MIN TEMP:  54; 6HR MAX TEMP:  61;

DOUGLAS        FOG       56  56 100 CALM      30.18S VSB 1/2
6HR MIN TEMP:  55; 6HR MAX TEMP:  62;


$$
WYZ021-027>030-104>119-271300-
SOUTHERN WYOMING

CITY           SKY/WX    TMP DP  RH WIND       PRES   REMARKS
EVANSTON       CLOUDY    50  44  80 SE3       30.29S
6HR MIN TEMP:  49; 6HR MAX TEMP:  54; 6HR PCP: TRACE;

KEMMERER       LGT RAIN  50  45  81 CALM      30.31R
FORT BRIDGER   CLOUDY    52  48  88 W5        30.31S
ROCK SPRINGS   LGT RAIN  51  48  89 SE6       30.28F
6HR MIN TEMP:  51; 6HR MAX TEMP:  54; 6HR PCP: TRACE;

DIXON          RAIN      53  52  96 SW6       30.32S
RAWLINS        CLOUDY    54  47  77 SW13      30.25S
6HR MIN TEMP:  51; 6HR MAX TEMP:  56; 6HR PCP: TRACE;

SARATOGA       LGT RAIN  50  48  93 MISG      30.28R
LARAMIE        LGT RAIN  52  48  86 CALM      30.26S
6HR MIN TEMP:  51; 6HR MAX TEMP:  54; 6HR PCP:  0.02;

CHEYENNE       CLOUDY    57  53  86 N6        30.20F
6HR MIN TEMP:  53; 6HR MAX TEMP:  59;

TORRINGTON     CLOUDY    62  59  90 NE3       30.12S
6HR MIN TEMP:  58; 6HR MAX TEMP:  62;

PINE BLUFFS    FOG       57  55  94 CALM      30.16F VSB 1/4

$$


USA.gov is the U.S. government's official web portal to all federal, state and local government web resources and services.